Flag for Germany Weather past 2 weeks in Soltau, Lower Saxony, Germany

Now
75 °F

Partly sunny.


Feels Like: 77 °F
Forecast: 55 / 85 °F
Wind: 5 mph from Southwest

Location: Fassberg

Current Time: Aug 2, 2015 at 6:31:00 PM

Latest Report: Aug 2, 2015 at 5:20 PM


Visibility: N/A

Pressure: 30.12 "Hg

Humidity: 39%

Dew point: 48 °F

Location of SoltauLocation

Historic Weather in Soltau — Graph

°F

Soltau temperature yesterday

Maximum temperature yesterday: 73 °F (at 4:20 PM)
Minimum temperature yesterday: 41 °F (at 3:20 AM)
Average temperature yesterday: 59 °F

Past Weeks' High & Low Weather Summary

 TemperatureHumidityPressure
High77 °F (Jul 21, 3:20 PM)100% (Jul 19, 12:20 PM)30.15 "Hg (Jul 19, 12:20 PM)
Low41 °F (Aug 1, 3:20 AM)36% (Aug 2, 3:20 PM)29.45 "Hg (Jul 25, 2:20 PM)
Average61 °F75%29.84 "Hg
* Reported Jul 18 5:20 PM — Aug 2 5:20 PM, Soltau, Weather by CustomWeather, © 2015

Note: Actual official high and low records may vary slightly from our data, if they occured in-between our weather recording intervals... More about our weather records

Advertising

Soltau weather history for previous 24 hours

 ConditionsComfort  
Time TempWeatherWind HumidityBarometerVisibility
5:20 PM
Sun, Aug 2
75 °FPartly sunny.5 mph39%30.12 "HgN/A
4:20 PM75 °FPartly sunny.7 mph39%30.12 "HgN/A
3:20 PM75 °FPartly sunny.6 mph36%30.12 "HgN/A
2:20 PM73 °FPartly sunny.8 mph38%30.15 "HgN/A
1:20 PM72 °FPartly sunny.8 mph44%30.15 "HgN/A
12:20 PM72 °FPartly sunny.7 mph44%30.15 "HgN/A
11:20 AM70 °FPartly sunny.8 mph46%30.15 "HgN/A
10:20 AM68 °FPartly sunny.8 mph53%30.12 "HgN/A
9:20 AM64 °FPartly sunny.6 mph68%30.12 "HgN/A
8:20 AM59 °FPartly sunny.5 mph82%30.09 "HgN/A
7:20 AM54 °FScattered clouds.1 mph88%30.09 "HgN/A
6:20 AM48 °FFog.No wind94%30.07 "HgN/A
5:20 AM48 °FFog.2 mph100%30.07 "HgN/A
4:20 AM50 °FFog.1 mph94%30.07 "HgN/A
3:20 AM52 °FPassing clouds.No wind94%30.04 "HgN/A
2:20 AM55 °FPassing clouds.No wind82%30.04 "HgN/A
1:20 AM55 °FPartly cloudy.No wind88%30.04 "HgN/A
12:20 AM55 °FPassing clouds.1 mph82%30.04 "HgN/A
11:20 PM
Sat, Aug 1
59 °FPassing clouds.3 mph77%30.04 "HgN/A
10:20 PM61 °FPartly cloudy.3 mph77%30.01 "HgN/A
9:20 PM66 °FPartly sunny.3 mph64%30.01 "HgN/A
8:20 PM70 °FPartly sunny.5 mph57%29.98 "HgN/A
7:20 PM72 °FBroken clouds.6 mph50%29.98 "HgN/A
6:20 PM73 °FBroken clouds.1 mph38%29.98 "HgN/A
Weather by CustomWeather, © 2015

See weather overviewHow to use our weather pages